OBJECT B, 61228

Orbit data source: Space-Track

You're viewing an Uncataloged Satellite

Recently launched and/or uncataloged satellites may have evolving metadata. Metadata may include but not limited to: Owner, Maufacturer, Bus, Motor, and Mission.

OBJECT B, 61228 is a satellite owned by Fudan Univ (CN) in SSO that was launched on Tue, 24 Sep 2024 UTC via a JIELONG-3 launch vehicle from the Yellow Sea Launch Area, China (YSLA). Unknown objects in Earth's orbit typically refer to objects detected orbiting the Earth but have not yet been identified or cataloged. These objects could be anything from previously untracked satellites, spent rocket stages, debris from satellite collisions, or even natural meteoroids temporarily captured by Earth's gravity.

Loading next visibility...
Identifier
61228, 2024-173B
Orbit
SSO
Country
Flag of CNCN / PRC
Related business
None
Manufacturer
SATC
Mission
Operational Commercial Imaging
Bus & Motor
FUDAN-1, Unknown motor
Mass
50 kg wet, 50 kg dry
Launch date (UTC)
2024-09-24 (11 months ago)
Launch vehicle
JIELONG-3
Launch site
Yellow Sea Launch Area, China (YSLA)
Object type
Unknown
Shape & HBR
Box + 1 Pan, 0.5 m
Radar Cross Section
0.480 m², Medium (>0.1 m² and < 1m²)

Expand to show TLE details & history
Last TLE update: 12 hours ago

TLE from 12 hours ago
0 OBJECT B
1 61228U 24173B   25241.98398667  .00132049  00000-0  14631-2 0  9992
2 61228  97.3600 324.5291 0006230 145.7281 214.4381 15.62520392 52343
Epoch: 2025-08-29T23:36Z
TLE epoch observation values (Epoch: 2025-08-29T23:36:56.448Z)
Latitude
0.00006°
Longitude
-8.13091°
Altitude
387.003 km
Speed
7.676 km/s
True Right ascension
21h 38m 06s
True Declination
0° 00' 00"
Sunlit
Object was in full shadow at epoch
Visualization orbit readout
Latitude
Unknown
Longitude
Unknown
Altitude
Unknown
Speed
Unknown
Apparent Right ascension
Unknown
Apparent Declination
Unknown
Sunlit
N/A
Visualization observer readout
Local Sidereal Time
02:57:12
Azimuth
Unknown
Elevation
Unknown
Doppler factor
Unknown
Orbital elements
Apogee altitude
381.496 km
Perigee altitude
373.078 km
Semi-major axis
6,755.424 km
Eccentricity
0.00062
Inclination
97.36°
RAAN
324.5291°
Arg. of periapsis
145.7281°
True anomaly
214.39775°
Mean anomaly
214.4381°
Eccentric anomaly
214.41792°
Mean motion
3.90899 °/min
Orbital period
92.1 mins
BSTAR
0.0014631
Loading maneuver chart data...
Computing Atmospheric mass density...
Loading historical data...
Loading historical data...
Loading historical data...
Loading historical data...
Loading historical data...
Loading historical data...
Loading historical data...

Documentation

Showing up to 5 results
|